Terminal Aerodrome Forecast
Issued by NWS Norman, OK

Home | Current Version | Previous Version | Text Only | Print | Product List | Glossary On
Versions: 1 2 3 4 5 6 7 8 9 10 11 12 13 14 15 16 17 18 19 20 21 22 23 24 25 26
000
FTUS44 KOUN 291136
TAFOKC
TAF
KOKC 291136Z 2912/3012 VRB04KT P6SM BKN100
     FM291700 18010KT P6SM SCT100 BKN200
      TEMPO 3008/3012 4SM -TSRA BKN040CB=

USA.gov is the U.S. government's official web portal to all federal, state and local government web resources and services.